Regional Weather Roundup
Issued by NWS

Home | Current Version | Previous Version | Graphics & Text | Print | Product List | Glossary On
Versions: 1 2 3 4 5 6 7 8 9 10 11 12 13 14 15 16 17 18 19 20 21 22 23 24 25 26 27 28 29 30 31 32 33 34 35 36 37 38 39 40 41 42 43 44 45 46 47 48 49 50
000
ASUS43 KLOT 161510
RWRIL

ILLINOIS REGIONAL WEATHER ROUNDUP
NATIONAL WEATHER SERVICE CHICAGO/ROMEOVILLE IL
1000 AM CDT TUE SEP 16 2014

NOTE: "FAIR" INDICATES FEW OR NO CLOUDS BELOW 12,000 FEET WITH NO
SIGNIFICANT WEATHER AND/OR OBSTRUCTIONS TO VISIBILITY.

* THESE STATIONS ARE NOT UNDER NWS QUALITY CONTROL. THEY ALSO MAY NOT
  REPORT WEATHER SUCH AS PRECIPITATION OR FOG.

ILZ001-002-007-009-015-016-024-161600-
NORTHWEST ILLINOIS

CITY           SKY/WX    TMP DP  RH WIND       PRES   REMARKS
MOLINE         SUNNY     56  45  66 E5        30.25S
STERLING*      SUNNY     57  46  67 CALM      30.25S
SAVANNA*       SUNNY     54  47  77 CALM      30.24F
$$

ILZ003-004-008-010-011-017-018-161600-
NORTH CENTRAL ILLINOIS

CITY           SKY/WX    TMP DP  RH WIND       PRES   REMARKS
ROCKFORD       SUNNY     55  47  74 CALM      30.25S
FREEPORT*      SUNNY     53  46  78 CALM      30.25F
ROCHELLE*      SUNNY     52  47  84 CALM      30.24S
DE KALB*       SUNNY     55  44  65 CALM      30.24S
PERU*          SUNNY     55  47  75 N3        30.25R
$$

ILZ005-006-012>014-019>023-161600-
NORTHEAST ILLINOIS

CITY           SKY/WX    TMP DP  RH WIND       PRES   REMARKS
CHICAGO-OHARE  MOSUNNY   58  47  66 CALM      30.22R
CHICAGO-MIDWAY MOSUNNY   60  50  69 CALM      30.22R
AURORA         SUNNY     57  45  64 NE3       30.23S
LANSING*       SUNNY     58  48  68 CALM      30.22R
JOLIET*        SUNNY     55  48  75 CALM      30.24R
WAUKEGAN       SUNNY     58  43  57 CALM      30.21S
DUPAGE AIRPORT SUNNY     59  48  67 VRB3      30.22S
KANKAKEE*      MOSUNNY   58  51  76 CALM      30.23S
WHEELING       SUNNY     60  46  59 VRB3      30.23S
MORRIS*        SUNNY     57  50  78 CALM      30.23R
ROMEOVILLE*    SUNNY     55  49  78 CALM      30.23S
NORTHERLY ISL    N/A     60  49  66 NE1         N/A
$$

LMZ740>746-161600-
SOUTHERN LAKE MICHIGAN

STATION/POSITION SKY/WX   TEMP    WIND        PRES    VSBY  WAVE
                          AIR SEA DIR/SP/G                  HT/PER
                          (F)     (DEG/KT/KT) (MB)    (MI)  (FT/S)
SOUTHERN BUOY              58 64  330/  6/  8   N/A
WAUKEGAN HARBOR            56     350/  6/  7   N/A
HARRISON CRIB              54     300/  5/  6   N/A
BURNHAM HARBOR             59      60/  3/  4   N/A
CALUMET HARBOR                                1021.7
MICHIGAN CITY              56     170/  5/  6   N/A
MICHIGAN CITY 6N           58 64  210/  6/  8   N/A           2/ 4
ST. JOSEPH                 58 67  180/  6/  8   N/A           1/ 4
$$

ILZ025>027-034>036-040-047-049-050-058-095>099-161600-
WEST-CENTRAL ILLINOIS

CITY           SKY/WX    TMP DP  RH WIND       PRES   REMARKS
QUINCY         SUNNY     56  49  77 NE6       30.25S
GALESBURG*     SUNNY     58  51  77 NE3       30.25S
MACOMB*        SUNNY     56  49  78 CALM      30.27S
JACKSONVILLE*  MOSUNNY   59  52  76 NE7       30.25S
PITTSFIELD*    MOSUNNY   57  50  76 NE3       30.26S
$$

ILZ028>032-037-038-041>044-048-051>054-059>061-161600-
CENTRAL ILLINOIS

CITY           SKY/WX    TMP DP  RH WIND       PRES   REMARKS
PONTIAC        SUNNY     54  54 100 CALM      30.23S
DECATUR        CLOUDY    58  51  78 NE5       30.24R
PEORIA         SUNNY     59  48  67 N3        30.24F
LACON*         SUNNY     52  47  84 CALM      30.24S
LINCOLN*       SUNNY     59  51  75 NE6       30.22F
SPRINGFIELD    MOSUNNY   58  51  78 N9        30.25S
TAYLORVILLE    CLOUDY    55  50  82 E3        30.24S
$$

ILZ033-039-045-046-055>057-062-063-161600-
EAST-CENTRAL ILLINOIS

CITY           SKY/WX    TMP DP  RH WIND       PRES   REMARKS
CHAMPAIGN      SUNNY     60  51  72 N3        30.23R
DANVILLE*      CLOUDY    57  52  83 NE8       30.20S
RANTOUL*       SUNNY     59  49  70 N6        30.23S
MATTOON        CLOUDY    57  50  77 N7        30.22S
PARIS*         CLOUDY    56  53  91 NE3       30.23S
$$

ILZ079-100>102-161600-
SOUTHWEST ILLINOIS

CITY           SKY/WX    TMP DP  RH WIND       PRES   REMARKS
ALTON          CLOUDY    59  54  82 E8        30.24R
BELLEVILLE     CLOUDY    61  54  79 VRB6      30.22S
CAHOKIA*       PTSUNNY   62  53  72 E5        30.23S
SPARTA*        CLOUDY    60  53  79 N9        30.23F
$$

ILZ064>066-069>071-074>076-080>082-084>086-088>090-092>094-161600-
SOUTH-CENTRAL ILLINOIS

CITY           SKY/WX    TMP DP  RH WIND       PRES   REMARKS
CARBONDALE     CLOUDY    59  52  77 VRB7      30.22S
CAIRO*         CLOUDY    65  56  73 NE13      30.19F
EFFINGHAM*     CLOUDY    58  52  81 CALM      30.22S
MARION         CLOUDY    59  54  82 N8        30.22S
MT. VERNON     CLOUDY    57  50  77 NE3       30.23S
CENTRALIA*     CLOUDY    58  51  79 NE3       30.23S
SALEM*         CLOUDY    60  55  83 CALM      30.23R
METROPOLIS*    PTSUNNY   63  55  75 N9        30.19S
$$

ILZ067-068-072-073-078-083-087-091-161600-
SOUTHEAST ILLINOIS

CITY           SKY/WX    TMP DP  RH WIND       PRES   REMARKS
LAWRENCEVILLE  CLOUDY    59  54  83 N7        30.21S
FLORA*         SUNNY     57  50  78 NE8       30.23S
FAIRFIELD*     CLOUDY   N/A N/A N/A N8        30.21F
HARRISBURG*    CLOUDY    61  55  81 N9        30.22S
ROBINSON*      CLOUDY    58  56  91 N7        30.22S
CARMI*         CLOUDY    62  57  83 N6        30.20S
$$

ABBREVIATIONS USED IN REMARKS
   TC - TEMPERATURE IN CELSIUS
  WCI - WIND CHILL INDEX
   HX - HEAT INDEX
  VSB - VISIBILITY
$$



USA.gov is the U.S. government's official web portal to all federal, state and local government web resources and services.